This is the latest recevied weather packets stored in our database for station/object KB3HLL. If no packets are shown the sender has not sent any weather packets the latest 10 day(s).
| Time | Temp. | Humidity | Pressure | Rain* | Wind** | Luminosity | Snow |
|---|---|---|---|---|---|---|---|
| 1777999281 | 22.22° C | 57% | 1010.7 hPa | 0 mm | - | 975 W/m² | - |
| 1777998980 | 21.67° C | 58% | 1010.7 hPa | 0 mm | - | 1046 W/m² | - |
| 1777998678 | 21.11° C | 60% | 1010.9 hPa | 0 mm | - | 790 W/m² | - |
| 1777998380 | 21.11° C | 61% | 1010.8 hPa | 0 mm | - | 1131 W/m² | - |
| 1777998080 | 21.11° C | 62% | 1010.9 hPa | 0 mm | - | 685 W/m² | - |
| 1777997780 | 20.56° C | 62% | 1011.2 hPa | 0 mm | - | 356 W/m² | - |
| 1777997480 | 20.56° C | 62% | 1011.2 hPa | 0 mm | - | 186 W/m² | - |
| 1777997178 | 21.11° C | 61% | 1011.2 hPa | 0 mm | - | 347 W/m² | - |
| 1777996880 | 21.11° C | 62% | 1011.3 hPa | 0 mm | - | 251 W/m² | - |
| 1777996580 | 21.11° C | 62% | 1011.3 hPa | 0 mm | - | 596 W/m² | - |
| 1777996279 | 20.56° C | 62% | 1011.3 hPa | 0 mm | - | 868 W/m² | - |
| 1777995984 | 20.56° C | 62% | 1011.6 hPa | 0 mm | - | 279 W/m² | - |
| 1777995678 | 21.11° C | 63% | 1011.4 hPa | 0 mm | - | 534 W/m² | - |
| 1777995380 | 21.11° C | 63% | 1011.6 hPa | 0 mm | - | 997 W/m² | - |
| 1777995079 | 21.11° C | 62% | 1011.6 hPa | 0 mm | - | 354 W/m² | - |
| 1777994782 | 21.11° C | 62% | 1011.4 hPa | 0 mm | - | 1023 W/m² | - |
| 1777994480 | 21.11° C | 62% | 1011.4 hPa | 0 mm | - | 845 W/m² | - |
| 1777994178 | 20.56° C | 63% | 1011.3 hPa | 0 mm | - | 468 W/m² | - |
| 1777993880 | 20.56° C | 64% | 1011.3 hPa | 0 mm | - | 397 W/m² | - |
| 1777993582 | 20.56° C | 64% | 1011.4 hPa | 0 mm | - | 724 W/m² | - |
| 1777993280 | 20° C | 67% | 1011.4 hPa | 0 mm | - | 702 W/m² | - |
| 1777992980 | 20° C | 67% | 1011.3 hPa | 0 mm | - | 345 W/m² | - |
| 1777992678 | 19.44° C | 70% | 1011.2 hPa | 0 mm | - | 667 W/m² | - |
| 1777992381 | 18.89° C | 71% | 1011.3 hPa | 0 mm | - | 751 W/m² | - |
| 1777992079 | 18.89° C | 72% | 1011.3 hPa | 0 mm | - | 776 W/m² | - |
* Rain latest hour (hover to see other rain measurements)
** Current wind speed in m/s (hover to see current wind gust speed)